Location: Unspecified
(44.9342°N, 0.0000°E)
Time: 07:37:58
(UTC+00:00)

SL-14 DEB - Visible Passes

Search period start: 04 April 2026 00:00
Search period end: 14 April 2026 00:00
Orbit: 913 x 940 km, 82.5° (Epoch: 14 March)

Date Brightness Start Highest point End Pass type
(mag) Time Alt. Az. Time Alt. Az. Time Alt. Az.
4 Apr ? 03:52:53 10° SE 03:57:50 28° E 04:02:51 10° NNE visible
5 Apr ? 04:02:51 10° SSE 04:08:20 38° E 04:13:51 10° NNE visible
6 Apr ? 04:13:02 10° SSE 04:18:51 52° E 04:24:43 10° NNE visible
7 Apr ? 02:45:29 10° E 02:46:14 10° ENE 02:46:58 10° ENE visible
7 Apr ? 04:23:26 10° S 04:29:26 71° E 04:35:30 10° NNE visible
8 Apr ? 02:53:19 10° ESE 02:56:33 15° E 02:59:49 10° NE visible
8 Apr ? 04:34:00 10° S 04:40:04 85° W 04:46:11 10° N visible
9 Apr ? 03:02:35 10° SE 03:06:56 21° E 03:11:18 10° NE visible
9 Apr ? 04:44:45 10° SSW 04:50:44 63° WNW 04:56:48 10° N visible
10 Apr ? 03:12:18 10° SE 03:17:22 29° E 03:22:28 10° NNE visible
11 Apr ? 03:22:18 10° SSE 03:27:50 39° E 03:33:26 10° NNE visible
12 Apr ? 03:32:30 10° SSE 03:38:23 54° E 03:44:17 10° NNE visible
13 Apr ? 02:04:16 10° E 02:05:43 11° ENE 02:07:09 10° ENE visible
13 Apr ? 03:42:55 10° S 03:48:57 75° E 03:55:03 10° NNE visible
